Tracking 18980 objects as of 18-Feb-2018
HD Live streaming from Space Station
objects crossing your sky now

FENGYUN 1C DEB

Track FENGYUN 1C DEB now!
10-day predictions


NORAD ID: 30891
Int'l Code: 1999-025AYD
Perigee: 857.3 km
Apogee: 937.7 km
Inclination: 99.1 °
Period: 102.8 minutes
Semi major axis: 7268 km
RCS: 0.0053 m2 (small)
Launch date: May 10, 1999
Source: People's Republic of China (PRC)
Launch site: Taiyaun Space Center, China (TSC)

Note: This is SATELLITE DEBRIS
aabbcc
Your satellite tracking list
Your tracking list is empty




NASA's NSSDC Master Catalog

Two Line Element Set (TLE):
1 30891U 99025AYD 18047.45663404 -.00000267 +00000-0 -14628-3 0  9999
2 30891 099.0652 116.5799 0055254 214.7235 204.1034 14.00989281559473
Source of the keplerian elements: AFSPC